Location: ?????
(37.7324°N, 23.9257°E)
Time: 12:55:21
(UTC+00:00)

Cosmos 2074 Rocket - Visible Passes

Search period start: 17 April 2021 00:00
Search period end: 27 April 2021 00:00
Orbit: 967 x 987 km, 82.9° (Epoch: 16 April)

Date Brightness Start Highest point End Pass type
(mag) Time Alt. Az. Time Alt. Az. Time Alt. Az.
17 Apr 6.2 21:31:02 10° NNE 21:33:05 16° NE 21:33:05 16° NE visible
17 Apr 5.7 23:15:08 10° NNW 23:17:46 26° NNW 23:17:46 26° NNW visible
18 Apr 5.8 21:55:49 10° N 21:58:40 24° NNE 21:58:40 24° NNE visible
18 Apr 6.0 23:41:25 10° NNW 23:43:22 19° NW 23:43:22 19° NW visible
19 Apr 5.5 22:21:11 10° N 22:24:18 31° N 22:24:18 31° N visible
20 Apr 6.3 00:08:30 10° NW 00:08:59 11° NW 00:08:59 11° NW visible
20 Apr 6.2 21:03:16 10° NNE 21:05:14 15° NE 21:05:14 15° NE visible
20 Apr 5.5 22:46:56 10° NNW 22:49:55 30° NNW 22:49:55 30° NNW visible
21 Apr 5.7 21:27:49 10° NNE 21:30:52 24° NE 21:30:52 24° NE visible
21 Apr 5.8 23:13:06 10° NNW 23:15:33 22° NW 23:15:33 22° NW visible
22 Apr 5.4 21:53:05 10° N 21:56:30 33° NNE 21:56:30 33° NNE visible
22 Apr 6.2 23:39:55 10° NW 23:41:12 14° NW 23:41:12 14° NW visible
23 Apr 6.1 20:35:35 10° NE 20:37:28 14° NE 20:37:28 14° NE visible
23 Apr 5.3 22:18:45 10° N 22:22:09 35° NNW 22:22:09 35° NNW visible
24 Apr 5.7 20:59:52 10° NNE 21:03:08 23° NE 21:03:08 23° NE visible
24 Apr 5.6 22:44:49 10° NNW 22:47:49 27° NW 22:47:49 27° NW visible
25 Apr 5.2 21:25:01 10° N 21:28:48 35° NNE 21:28:48 35° NNE visible
25 Apr 6.0 23:11:25 10° NW 23:13:29 17° NW 23:13:29 17° NW visible
26 Apr 6.1 20:08:07 10° NE 20:09:47 12° ENE 20:09:47 12° ENE visible
26 Apr 5.1 21:50:36 10° N 21:54:29 41° N 21:54:29 41° N visible
